Regional Weather Roundup
Issued by NWS

Home | Current Version | Previous Version | Text Only | Print | Product List | Glossary On
Versions: 1 2 3 4 5 6 7 8 9 10 11 12 13 14 15 16 17 18 19 20 21 22 23 24 25 26 27 28 29 30 31 32 33 34 35 36 37 38 39 40 41 42 43 44 45 46 47 48 49 50
000
ASMX46 KSGX 231810
RWRMX

MEXICAN WEATHER ROUNDUP
NATIONAL WEATHER SERVICE SAN DIEGO CA
1100 AM PDT WED APR 23 2014

BAJA CALIFORNIA

CITY           SKY/WX    TMP DP  RH WIND       PRES   REMARKS
ENSENADA NW      N/A     63  32  31 W2        29.96S
LA PAZ         MOSUNNY   82  41  23 S5        29.93
LORETO         PTSUNNY   82  54  36 E9        29.85
MEXICALI       MOSUNNY   77  36  22 W7        29.88
S.J. DEL CABO  SUNNY     90  39  17 S14       29.88F
TIJUANA        MOSUNNY   64  45  48 NW5       29.99S

NORTHWESTERN MEXICO

CITY           SKY/WX    TMP DP  RH WIND       PRES   REMARKS
CHIHUAHUA      PTSUNNY   81  27  13 MISG      29.97
CULIACAN       MOSUNNY   91  55  29 CALM      29.88
GUAYMAS        MOSUNNY   81  52  36 S12       29.82
HERMOSILLO     MOSUNNY   86  41  20 SE7       29.88
JUAREZ         MOSUNNY   79  32  18 W16       29.88
LOS MOCHIS     MOSUNNY   82  55  39 SW9       29.88F
OBREGON        PTSUNNY   82  48  30 CALM      29.85

NORTHEASTERN MEXICO

CITY           SKY/WX    TMP DP  RH WIND       PRES   REMARKS
MATAMOROS      MOSUNNY   82  66  57 E16       29.92
MONCLOVA       SUNNY     88  61  40 CALM      29.81F
MONTERREY      SUNNY     79  61  53 E8        29.87F
NUEVO LAREDO   MOSUNNY   84  39  20 S6        29.86
PIEDRAS NEGRAS SUNNY     86  63  45 SE9       29.86
REYNOSA        CLOUDY    79  64  61 S17       29.88
SALTILLO       SUNNY     88  61  40 NW7       30.06F
TORREON        SUNNY     86  43  22 NE5       29.97F
VICTORIA       SUNNY     84  64  51 SE17      29.87

WESTERN MEXICO

CITY           SKY/WX    TMP DP  RH WIND       PRES   REMARKS
AGUASCALIENTES SUNNY     77  34  20 SW7       30.21
COLIMA         MOSUNNY   82  64  54 SW12      30.00
DURANGO        SUNNY     77  28  16 S10       30.15
GUADALAJARA    SUNNY     82  27  13 W14       30.14
MANZANILLO     PTSUNNY   82  72  69 S7        29.89R
MAZATLAN       SUNNY     82  64  54 S10       29.86F
PTO. VALLARTA  SUNNY     82  54  36 S9        29.89S
TEPIC          SUNNY     88  59  37 N7        30.10F
URUAPAN        SUNNY     77  48  36 SW8       30.17F
ZACATECAS      MOSUNNY   77  32  19 SW5       30.24F

CENTRAL MEXICO

CITY           SKY/WX    TMP DP  RH WIND       PRES   REMARKS
CUERNAVACA       N/A    N/A N/A N/A MISG        N/A
LEON           MOSUNNY   82  46  28 S8        30.21F
MEXICO CITY    MOSUNNY   72  45  37 NE3       30.30F
MORELIA        SUNNY     79  41  25 N5        30.19
POZA RICA      PTSUNNY   86  72  62 SE12      29.97R
PUEBLA         MOSUNNY   73  45  35 S8        30.29F
QUERETARO      MOSUNNY   81  41  24 N8        30.25F
S. LUIS POTOSI SUNNY     79  45  29 CALM      30.16F
TAMPICO        MOSUNNY   81  68  65 SE16      29.91F
TOLUCA         MOSUNNY   72  36  26 NW9       30.35F
VERACRUZ       MOSUNNY   82  66  57 E10       29.90F

SOUTHERN MEXICO

CITY           SKY/WX    TMP DP  RH WIND       PRES   REMARKS
ACAPULCO       MOSUNNY   86  73  66 SW7       29.85F
B. DE HUATULCO MOSUNNY   90  75  62 S9        29.89  HX 100
MINATITLAN     MOSUNNY   84  72  65 N8        29.89
OAXACA         PTSUNNY   81  48  32 SW8       30.16F
PTO. ESCONDIDO SUNNY     90  73  58 SW9       29.99F HX  98
TAPACHULA      PTSUNNY   91  75  59 S2        29.87F HX 102
TUX. GUTIERREZ MOSUNNY   90  64  43 CALM      29.91F
VILLAHERMOSA   CLOUDY    86  72  62 NE5       29.91F
ZIHUATANEJO    SUNNY     86  73  66 SW8       29.87F

YUCATAN PENINSULA

CITY           SKY/WX    TMP DP  RH WIND       PRES   REMARKS
CAMPECHE       MOSUNNY   88  72  58 NW12      29.87F
CANCUN         MOSUNNY   82  64  54 E9        29.96F
CHETUMAL       PTSUNNY   84  75  74 E9        29.92F
C. DEL CARMEN  PTSUNNY   82  73  74 N8        29.88
COZUMEL        PTSUNNY   79  66  65 E5        29.96F
MERIDA         MOSUNNY   90  61  37 E8        29.91F

$$




USA.gov is the U.S. government's official web portal to all federal, state and local government web resources and services.